Home   Weather   Bramsche   Past weeks

Flag for Germany Past Weather in Bramsche, Lower Saxony, Germany — Yesterday and Last 2 Weeks

46 °F

Broken clouds.

Feels Like: 44 °F
Forecast: 37 / 50 °F
Wind: 6 mph from North

Location: Muenster / Osnabrueck

Current Time: Oct 22, 2016 at 3:37:04 PM

Latest Report: Oct 22, 2016 at 3:20 PM

Visibility: 5 mi

Pressure: 29.95 "Hg

Humidity: 87%

Dew Point: 43 °F

Location of BramscheLocation

Past Weather in Bramsche — Graph


Bramsche Temperature Yesterday

Maximum temperature yesterday: 48 °F (at 1:20 PM)
Minimum temperature yesterday: 41 °F (at 3:50 AM)
Average temperature yesterday: 45 °F

High & Low Weather Summary for the Past Weeks

High64 °F (Oct 16, 2:50 PM)100% (Oct 8, 6:50 AM)30.30 "Hg (Oct 8, 6:50 AM)
Low32 °F (Oct 11, 2:50 AM)51% (Oct 8, 4:50 PM)29.68 "Hg (Oct 15, 1:20 AM)
Average48 °F87%30.06 "Hg
* Reported Oct 7 2:20 PM — Oct 22 2:20 PM, Bramsche, Weather by CustomWeather, © 2016

Note: Actual official high and low records may vary slightly from our data, if they occured in-between our weather recording intervals... More about our weather records


Bramsche Weather History for the Previous 24 Hours

Scroll right to see more
Time TempWeatherWind HumidityBarometerVisibility
2:20 PM
Sat, Oct 22
46 °FBroken clouds.7 mph87%29.95 "Hg6 mi
1:50 PM46 °FBroken clouds.7 mph87%29.95 "Hg6 mi
1:20 PM48 °FBroken clouds.7 mph82%29.95 "Hg6 mi
12:50 PM46 °FBroken clouds.5 mph87%29.95 "Hg6 mi
12:20 PM46 °FBroken clouds.5 mph87%29.95 "Hg6 mi
11:50 AM46 °FPartly sunny.7 mph87%29.95 "Hg5 mi
11:20 AM46 °FPartly sunny.8 mph87%29.95 "Hg4 mi
10:50 AM45 °FBroken clouds.6 mph93%29.92 "Hg4 mi
10:20 AM45 °FPartly sunny.6 mph93%29.95 "Hg4 mi
9:50 AM45 °FFog.7 mph93%29.92 "Hg3 mi
9:20 AM45 °FFog.6 mph93%29.92 "Hg2 mi
8:50 AM45 °FFog.7 mph93%29.92 "Hg2 mi
8:20 AM45 °FFog.7 mph93%29.92 "Hg2 mi
7:50 AM45 °FPassing clouds.6 mph93%29.92 "Hg4 mi
7:20 AM45 °FPassing clouds.6 mph93%29.89 "Hg4 mi
6:50 AM45 °FPassing clouds.5 mph93%29.89 "Hg4 mi
6:20 AM45 °FPassing clouds.5 mph93%29.89 "Hg4 mi
5:50 AM45 °FFog.5 mph100%29.89 "Hg3 mi
5:20 AM45 °FFog.5 mph100%29.89 "Hg3 mi
4:50 AM45 °FFog.5 mph100%29.89 "Hg3 mi
4:20 AM45 °FFog.5 mph93%29.89 "Hg3 mi
3:50 AM45 °FPassing clouds.5 mph100%29.89 "Hg4 mi
3:20 AM45 °FPassing clouds.5 mph100%29.89 "Hg5 mi
2:50 AM46 °FPassing clouds.5 mph93%29.89 "Hg5 mi
2:20 AM46 °FPartly cloudy.3 mph93%29.89 "Hg4 mi
1:50 AM46 °FPartly cloudy.3 mph93%29.89 "Hg5 mi
1:20 AM46 °FPartly cloudy.5 mph93%29.89 "Hg4 mi
12:50 AM46 °FPassing clouds.3 mph93%29.89 "Hg4 mi
12:20 AM46 °FPassing clouds.5 mph100%29.89 "Hg4 mi
11:50 PM
Fri, Oct 21
46 °FFog.2 mph100%29.89 "Hg3 mi
11:20 PM46 °FPassing clouds.2 mph93%29.89 "Hg5 mi
10:50 PM46 °FPassing clouds.2 mph93%29.89 "HgN/A
10:20 PM46 °FDrizzle. Fog.3 mph93%29.89 "Hg1 mi
9:50 PM46 °FPassing clouds.3 mph93%29.89 "HgN/A
9:20 PM46 °FPassing clouds.5 mph93%29.89 "HgN/A
8:50 PM46 °FDrizzle. Fog.5 mph93%29.89 "Hg2 mi
8:20 PM46 °FDrizzle. Fog.5 mph93%29.89 "Hg2 mi
7:50 PM46 °FDrizzle. Fog.6 mph93%29.89 "Hg2 mi
7:20 PM46 °FDrizzle. Fog.6 mph93%29.92 "Hg2 mi
6:50 PM46 °FDrizzle. Fog.7 mph93%29.89 "Hg1 mi
6:20 PM46 °FDrizzle. Fog.8 mph93%29.92 "Hg2 mi
5:50 PM46 °FDrizzle. Fog.7 mph93%29.92 "Hg2 mi
5:20 PM46 °FDrizzle. Fog.9 mph93%29.92 "Hg2 mi
4:50 PM46 °FDrizzle. Fog.8 mph93%29.92 "Hg2 mi
4:20 PM46 °FDrizzle. Fog.9 mph93%29.92 "Hg2 mi
3:50 PM46 °FDrizzle. Fog.10 mph93%29.92 "Hg2 mi
3:20 PM46 °FDrizzle. Partly sunny.13 mph93%29.92 "Hg4 mi
Weather by CustomWeather, © 2016

See weather overviewHow to use our weather pages